TimeEST,TemperatureF,Dew PointF,Humidity,Sea Level PressureIn,VisibilityMPH,Wind Direction,Wind SpeedMPH,Gust SpeedMPH,PrecipitationIn,Events,Conditions,WindDirDegrees,DateUTC
12:53 AM,27.0,-9999,N/A,30.01,10.0,East,4.6,-,N/A,,Clear,100,2012-12-24 05:53:00
1:53 AM,24.1,-9999,N/A,30.00,10.0,Calm,Calm,-,N/A,,Clear,0,2012-12-24 06:53:00
2:53 AM,26.1,-9999,N/A,29.98,10.0,East,4.6,-,N/A,,Clear,100,2012-12-24 07:53:00
3:53 AM,26.1,-9999,N/A,29.96,10.0,ENE,4.6,-,N/A,,Clear,70,2012-12-24 08:53:00
4:53 AM,27.0,-9999,N/A,29.94,10.0,East,8.1,-,N/A,,Clear,100,2012-12-24 09:53:00
5:53 AM,27.0,-9999,N/A,29.92,10.0,East,6.9,-,N/A,,Clear,80,2012-12-24 10:53:00
6:53 AM,27.0,-9999,N/A,29.90,10.0,East,8.1,-,N/A,,Clear,80,2012-12-24 11:53:00
7:53 AM,26.1,-9999,N/A,29.92,10.0,NE,3.5,-,N/A,,Clear,50,2012-12-24 12:53:00
8:53 AM,26.1,-9999,N/A,29.92,10.0,ENE,5.8,-,N/A,,Clear,70,2012-12-24 13:53:00
9:53 AM,28.0,-9999,N/A,29.93,10.0,NE,5.8,-,N/A,,Clear,40,2012-12-24 14:53:00
10:53 AM,28.9,-9999,N/A,29.89,10.0,East,11.5,-,N/A,,Clear,80,2012-12-24 15:53:00
11:53 AM,30.0,-9999,N/A,29.89,10.0,East,5.8,-,N/A,,Mostly Cloudy,80,2012-12-24 16:53:00
12:53 PM,30.9,-9999,N/A,29.86,10.0,East,5.8,-,N/A,,Overcast,90,2012-12-24 17:53:00
1:53 PM,33.1,-9999,N/A,29.86,10.0,ENE,4.6,-,N/A,,Overcast,70,2012-12-24 18:53:00
2:06 PM,33.8,-9999,N/A,29.83,10.0,Variable,4.6,-,N/A,,Overcast,0,2012-12-24 19:06:00
2:53 PM,33.1,-9999,N/A,29.87,10.0,ENE,4.6,-,N/A,,Overcast,70,2012-12-24 19:53:00
3:53 PM,33.1,-9999,N/A,29.88,10.0,ENE,4.6,-,N/A,,Overcast,60,2012-12-24 20:53:00
4:41 PM,32.0,-9999,N/A,29.86,10.0,NE,5.8,-,N/A,,Overcast,50,2012-12-24 21:41:00
4:53 PM,32.0,-9999,N/A,29.89,10.0,NE,4.6,-,N/A,,Overcast,40,2012-12-24 21:53:00
5:44 PM,30.2,-9999,N/A,29.91,10.0,NE,3.5,-,N/A,,Overcast,50,2012-12-24 22:44:00
5:53 PM,30.9,-9999,N/A,29.94,10.0,Calm,Calm,-,N/A,,Overcast,0,2012-12-24 22:53:00
6:40 PM,30.2,-9999,N/A,29.93,10.0,ENE,4.6,-,N/A,,Overcast,60,2012-12-24 23:40:00
6:53 PM,30.9,-9999,N/A,29.96,10.0,Variable,4.6,-,N/A,,Overcast,0,2012-12-24 23:53:00
7:53 PM,30.9,-9999,N/A,29.99,10.0,Calm,Calm,-,N/A,,Overcast,0,2012-12-25 00:53:00
8:53 PM,30.0,-9999,N/A,30.01,10.0,Calm,Calm,-,N/A,,Overcast,0,2012-12-25 01:53:00
9:53 PM,30.0,-9999,N/A,30.04,10.0,Calm,Calm,-,N/A,,Overcast,0,2012-12-25 02:53:00
10:53 PM,28.9,-9999,N/A,30.05,10.0,NE,3.5,-,N/A,,Mostly Cloudy,50,2012-12-25 03:53:00
11:46 PM,26.6,-9999,N/A,30.05,9.0,ENE,3.5,-,N/A,,Mostly Cloudy,60,2012-12-25 04:46:00
11:53 PM,27.0,-9999,N/A,30.07,9.0,ENE,4.6,-,N/A,,Mostly Cloudy,70,2012-12-25 04:53:00